Hourly Weather Roundup
Issued by NWS Central Illinois

Home | Current Version | Previous Version | Text Only | Print | Product List | Glossary On
Versions: 1 2 3 4 5 6 7 8 9 10 11 12 13 14 15 16 17 18 19 20 21 22 23 24 25 26 27 28 29 30 31 32 33 34 35 36 37 38 39 40 41 42 43 44 45 46 47 48 49 50
176
NZUS43 KILX 282010
HWRILX

AREA WEATHER ROUNDUP
NATIONAL WEATHER SERVICE, LINCOLN IL
300 PM CDT SUN AUG 28 2016


CITY           SKY/WX    TMP DP  RH WIND       PRES   REMARKS
BLOOMINGTON    PTSUNNY   86  74  67 SE10      30.16F HX  94
CHAMPAIGN      MOSUNNY   89  72  56 MISG      30.16F HX  96
DANVILLE       SUNNY     88  72  57 CALM      30.14S HX  95
DECATUR        SUNNY     89  70  53 SE9       30.14F HX  94
EFFINGHAM      SUNNY     91  71  53 E3        30.14F HX  97
FLORA          MOSUNNY   91  73  56 CALM      30.12F HX  99
GALESBURG      CLOUDY    76  69  80 E10       30.15S THUNDER
JACKSONVILLE   CLOUDY    84  75  73 NE3       30.13S HX  92
LACON          CLOUDY    71  69  96 SE7       30.16F VSB 1
LAWRENCEVILLE  MOSUNNY   89  71  55 SE5       30.12F HX  95
LITCHFIELD     SUNNY     92  71  49 SE7       30.13F HX  99
$$


CITY           SKY/WX    TMP DP  RH WIND       PRES   REMARKS
LINCOLN        CLOUDY    88  76  68 SW3       30.14S HX  98
MACOMB         CLOUDY    85  74  71 SE5       30.16F HX  92
MATTOON        SUNNY     88  70  55 S7        30.14F HX  93
MT CARMEL AP   PTSUNNY   91  73  56 CALM      30.12F HX  99
OLNEY-NOBLE AP MOSUNNY   90  73  58 CALM      30.12F HX  98
PARIS          MOSUNNY   89  74  62 CALM      30.15F HX  98
PEORIA         MOSUNNY   87  74  64 S7        30.13F HX  95
PONTIAC        TSTM      72  70  94 N10G18    30.20R
RANTOUL        MOSUNNY   89  75  62 SE3       30.16F HX  99
ROBINSON       PTSUNNY   90  73  58 S5        30.13F HX  98
SPRINGFIELD    SUNNY     87  76  69 N5        30.13F HX  97
TAYLORVILLE    SUNNY     89  70  54 CALM      30.13F HX  94
$$

...REGIONAL REPORTS...


CITY           SKY/WX    TMP DP  RH WIND       PRES   REMARKS
CHICAGO O`HARE CLOUDY    81  70  69 E12       30.19R HX  84
KANKAKEE       PTSUNNY   74  69  86 N6        30.20R THUNDER
MOLINE         SUNNY     88  72  58 SE6       30.12F HX  94
MOUNT STERLING PTSUNNY   85  75  70 SE3       30.13F HX  94
MOUNT VERNON   MOSUNNY   93  72  49 S6        30.12F HX 100
PITTSFIELD     CLOUDY    85  76  74 CALM      30.14F HX  94
QUINCY         CLOUDY    84  73  69 S8        30.13F HX  90
ROCKFORD       PTSUNNY   85  70  60 SE7       30.18S HX  89
$$


CITY           SKY/WX    TMP DP  RH WIND       PRES   REMARKS
BURLINGTON     SUNNY     87  75  67 SE5       30.12F HX  96
CEDAR RAPIDS   MOSUNNY   80  70  71 SE7       30.12F HX  83
DES MOINES     PTSUNNY   88  72  58 SE7       30.08F HX  94
KIRKSVILLE     PTSUNNY   82  71  69 E12       30.14F HX  86
OTTUMWA        MOSUNNY   80  65  59 SE6       30.11F HX  82
ST LOUIS       MOSUNNY   95  66  38 VRB7      30.12F HX  98
$$


CITY           SKY/WX    TMP DP  RH WIND       PRES   REMARKS
TERRE HAUTE    SUNNY     91  70  49 CALM      30.14F HX  96
EVANSVILLE     CLOUDY    90  72  55 CALM      30.12F HX  97
INDIANAPOLIS   PTSUNNY   90  72  55 SW5       30.15F HX  97
LAFAYETTE      PTSUNNY   86  74  67 N6        30.14F HX  94
MADISON        PTSUNNY   79  68  69 SE3       30.18F HX  81
MILWAUKEE      MOSUNNY   74  66  76 E10       30.20F
$$






USA.gov is the U.S. government's official web portal to all federal, state and local government web resources and services.